sat.trackr.live / text

‹ back to catalog

STARLINK-36573

NORAD 67539 · 2026-014H

PAYLOAD ACTIVE UNKNOWN

§ Identity

Operator
Country
US
Launch date
2026-01-22
Launch site
AFWTR
Launch vehicle
Mass (kg)
RCS (m²)

Purposes: comms

External: N2YO · Heavens-Above · Gunter

§ Orbital elements

Epoch: 2026-05-25T02:24:36.275904Z

Period
93.91 min
Inclination
97.2865°
Eccentricity
0.0001175
Mean motion
15.33458988 rev/d
Perigee alt
464.7 km
Apogee alt
466.3 km
Semi-major
6,843.6 km
B*
7.1891e-4
RAAN
32.1483°
Arg perigee
44.3581°
Mean anomaly
315.7756°
Rev number
2,049

§ Raw data

STARLINK-365731 67539U 26014H   26145.10041986  .00023216  00000+0  71891-3 0  99922 67539  97.2865  32.1483 0001175  44.3581 315.7756 15.33458988 20492

JSON: /api/v1/satellites/67539 · /tle

For live sub-satellite position, see the globe view (requires WebGL).

§ Visibility from observer

Set your observer location to see the next 7 days of passes ≥ 10°. The values pass through the URL so the page stays shareable.

No JS? Fill the form by hand. The geolocation button needs JavaScript.